Guest (not logged in) | Log in

Project information

Duration: 2013-12-01 00:00 onwards
Historical data from: 1995-01-01
Position: 0° 0' 0.00" N
0° 0' 0.00" E
0 m A.S.L
Contact: Ebba Dellwik
Description:

Measurements

NameHeight [m]DurationLatest (2014-07-23 13:00)
Sstat_16.5 0.00 2013-12-12 14:00 onwards 4.00
SX_16.5 0.00 2013-12-12 14:00 onwards -5.35 m/s
SY_16.5 0.00 2013-12-12 14:00 onwards -2.25 m/s
SZ_16.5 0.00 2013-12-12 14:00 onwards -0.50 m/s
ST_16.5 0.00 2013-12-12 14:00 onwards 24.29 deg C
Sspd_16.5 0.00 2013-12-12 14:00 onwards 5.80 m/s
Sdir_16.5 0.00 2013-12-12 14:00 onwards 22.81 °
Stilt_16.5 0.00 2013-12-12 14:00 onwards -4.92 Deg
Sstat_N_8.33 0.00 2013-12-12 14:00 onwards 4.00
SX_N_8.33 0.00 2013-12-12 14:00 onwards -1.09 m/s
SY_N_8.33 0.00 2013-12-12 14:00 onwards -1.54 m/s
SZ_N_8.33 0.00 2013-12-12 14:00 onwards -0.10 m/s
ST_N_8.33 0.00 2013-12-12 14:00 onwards 17.11 deg C
Sspd_N_8.33 0.00 2013-12-12 14:00 onwards 1.89 m/s
Sdir_N_8.33 0.00 2013-12-12 14:00 onwards 43.71 °
Stilt_N_8.33 0.00 2013-12-12 14:00 onwards -3.03 Deg
Sstat_S_7.21 0.00 2013-12-12 14:00 onwards 4.00
SX_S_7.21 0.00 2013-12-12 14:00 onwards -3.85 m/s
SY_S_7.21 0.00 2013-12-12 14:00 onwards -0.21 m/s
SZ_S_7.21 0.00 2013-12-12 14:00 onwards 0.13 m/s
ST_S_7.21 0.00 2013-12-12 14:00 onwards 15.15 deg C
Sspd_S_7.21 0.00 2013-12-12 14:00 onwards 3.86 m/s
Sdir_S_7.21 0.00 2013-12-12 14:00 onwards 349.12 °
Stilt_S_7.21 0.00 2013-12-12 14:00 onwards 1.93 Deg
DAU_STATUS 0.00 2013-12-12 14:00 onwards 4.00
Tdiff_54_10 0.00 2013-12-12 14:00 onwards -0.99 deg C
Tabs_54 0.00 2013-12-12 14:00 onwards 24.99 deg C
Pressure_mast 0.00 2013-12-12 14:00 onwards 1022.79 hPa
WS_18_North 0.00 2013-12-12 14:00 onwards 5.17 m/s
WS_18_South 0.00 2013-12-12 14:00 onwards 5.54 m/s
DAU_STATUS1 0.00 2013-12-12 14:00 onwards 4.00
RH 0.00 2013-12-20 12:20 to 2013-12-20 12:40 89.64 %RH
Temp 0.00 2013-12-20 12:20 to 2013-12-20 12:40 4.74 DegC
RH_10 0.00 2013-12-20 13:00 onwards 37.84 %RH
Tabs_10 0.00 2013-12-20 13:00 onwards 26.22 DegC
Comments and help requests to webmaster
© 2018